Weather History for Mount Sterling, KY

Change the Weather History Date:

Friday, February 1, 2013

  Actual Average Record
Temperature  
Mean Temperature 16 °F -  
Max Temperature 23 °F 44 °F 60 °F (2014)
Min Temperature 8 °F 25 °F 8 °F (2013)
Degree Days  
Heating Degree Days 50    
Moisture  
Dew Point 6 °F    
Average Humidity 69    
Maximum Humidity 93    
Minimum Humidity 53    
Precipitation  
Precipitation 0.00 in - - ()
Sea Level Pressure  
Sea Level Pressure 30.33 in    
Wind  
Wind Speed 10 mph (WNW)    
Max Wind Speed 16 mph    
Max Gust Speed 33 mph    
Visibility 10 miles    
Events Snow    
Averages and records for this station are not official NWS values.
T = Trace of Precipitation, MM = Missing Value Source: NWS Daily Summary

Daily Weather History Graph

Daily Weather History Graph

Search for Another Location

Airport:

Trip Planner

Search our weather history database for the weather conditions in past years. The results will help you decide how hot, cold, wet, or windy it might be!

Date:

Astronomy

Feb. 01, 2013 Rise Set
Actual Time 7:40 AM EST 5:59 PM EST
Civil Twilight 7:12 AM EST 6:27 PM EST
Nautical Twilight 6:41 AM EST 6:58 PM EST
Astronomical Twilight 6:10 AM EST 7:29 PM EST
Moon 11:58 PM EST (2/1) 10:19 AM EST (2/1)
Length of Visible Light 11h 14m
Length of Day
10h 19m
Waning Gibbous, 70% of the Moon is Illuminated
Feb 1
Waning Gibbous
Feb 3
Last Quarter
Feb 10
New
Feb 17
First Quarter
Feb 25
Full

Hourly Weather History & Observations

Time (EST) Temp. Windchill Dew Point Humidity Pressure Visibility Wind Dir Wind Speed Gust Speed Precip Events Conditions
12:15 AM 23.0 °F 11.1 °F 21.2 °F 93% 30.01 in 1.0 mi NNW 12.7 mph 23.0 mph N/A Snow Snow
12:35 AM 21.2 °F 10.9 °F 19.4 °F 93% 30.03 in 1.5 mi NNW 9.2 mph 24.2 mph N/A Snow Light Snow
1:15 AM 21.2 °F 7.8 °F 14.0 °F 74% 30.07 in 10.0 mi NW 15.0 mph 26.5 mph N/A   Overcast
1:35 AM 19.4 °F 5.0 °F 14.0 °F 80% 30.09 in 5.0 mi NNW 16.1 mph 25.3 mph N/A Snow Light Snow
1:55 AM 17.6 °F 5.7 °F 6.8 °F 63% 30.12 in 5.0 mi NW 10.4 mph 33.4 mph N/A   Haze
2:15 AM 17.6 °F 2.7 °F 6.8 °F 63% 30.14 in 10.0 mi NW 16.1 mph 23.0 mph N/A   Scattered Clouds
2:35 AM 15.8 °F 0.3 °F 6.8 °F 68% 30.16 in 10.0 mi NW 16.1 mph 27.6 mph N/A   Scattered Clouds
2:55 AM 15.8 °F 0.3 °F 6.8 °F 68% 30.18 in 10.0 mi WNW 16.1 mph 27.6 mph N/A   Mostly Cloudy
3:15 AM 14.0 °F -2.0 °F 5.0 °F 67% 30.20 in 10.0 mi WNW 16.1 mph 24.2 mph N/A   Overcast
3:35 AM 14.0 °F -0.2 °F 5.0 °F 67% 30.21 in 10.0 mi NW 12.7 mph 25.3 mph N/A   Overcast
4:15 AM 12.2 °F -1.0 °F 1.4 °F 62% 30.23 in 10.0 mi NW 10.4 mph 23.0 mph N/A   Scattered Clouds
4:35 AM 12.2 °F -1.8 °F 1.4 °F 62% 30.25 in 10.0 mi NW 11.5 mph 18.4 mph N/A   Clear
4:55 AM 10.4 °F -4.1 °F -0.4 °F 62% 30.26 in 10.0 mi NW 11.5 mph 19.6 mph N/A   Clear
5:15 AM 10.4 °F -1.5 °F -0.4 °F 62% 30.27 in 10.0 mi NW 8.1 mph 18.4 mph N/A   Clear
5:35 AM 10.4 °F -0.4 °F 1.4 °F 67% 30.27 in 10.0 mi WNW 6.9 mph - N/A   Clear
5:55 AM 8.6 °F -2.6 °F 1.4 °F 73% 30.28 in 10.0 mi NW 6.9 mph - N/A   Clear
6:15 AM 8.6 °F -1.3 °F 1.4 °F 73% 30.30 in 10.0 mi WNW 5.8 mph - N/A   Scattered Clouds
6:35 AM 8.6 °F 0.1 °F 1.4 °F 73% 30.31 in 10.0 mi West 4.6 mph - N/A   Mostly Cloudy
6:55 AM 8.6 °F 0.1 °F 1.4 °F 73% 30.32 in 10.0 mi WNW 4.6 mph - N/A   Overcast
7:15 AM 10.4 °F -0.4 °F 3.2 °F 73% 30.32 in 10.0 mi NW 6.9 mph - N/A   Overcast
7:35 AM 10.4 °F -2.4 °F 1.4 °F 67% 30.34 in 10.0 mi NW 9.2 mph 19.6 mph N/A   Mostly Cloudy
7:55 AM 8.6 °F -4.7 °F 1.4 °F 73% 30.35 in 10.0 mi WNW 9.2 mph - N/A   Scattered Clouds
8:15 AM 8.6 °F -3.7 °F 1.4 °F 73% 30.36 in 10.0 mi NW 8.1 mph - N/A   Clear
8:35 AM 8.6 °F -4.7 °F -0.4 °F 67% 30.37 in 10.0 mi NW 9.2 mph - N/A   Clear
9:15 AM 10.4 °F -3.3 °F -0.4 °F 62% 30.38 in 10.0 mi WNW 10.4 mph - N/A   Clear
9:35 AM 10.4 °F -4.1 °F 1.4 °F 67% 30.39 in 10.0 mi WNW 11.5 mph - N/A   Clear
10:15 AM 10.4 °F -3.3 °F -0.4 °F 62% 30.40 in 10.0 mi WNW 10.4 mph 17.3 mph N/A   Clear
10:35 AM 12.2 °F -0.2 °F 1.4 °F 62% 30.42 in 10.0 mi West 9.2 mph - N/A   Clear
11:15 AM 14.0 °F 3.9 °F 1.4 °F 57% 30.42 in 10.0 mi WNW 6.9 mph - N/A   Clear
11:35 AM 12.2 °F -1.8 °F 1.4 °F 62% 30.42 in 10.0 mi West 11.5 mph 16.1 mph N/A   Clear
12:15 PM 14.0 °F 2.9 °F 3.2 °F 62% 30.43 in 10.0 mi WNW 8.1 mph - N/A   Clear
12:35 PM 15.8 °F 3.4 °F 3.2 °F 58% 30.43 in 10.0 mi WNW 10.4 mph 17.3 mph N/A   Clear
1:15 PM 17.6 °F 5.7 °F 3.2 °F 53% 30.42 in 10.0 mi WNW 10.4 mph - N/A   Clear
1:35 PM 17.6 °F 6.4 °F 3.2 °F 53% 30.42 in 10.0 mi West 9.2 mph 16.1 mph N/A   Clear
1:55 PM 17.6 °F 5.0 °F 5.0 °F 58% 30.40 in 10.0 mi WNW 11.5 mph 16.1 mph N/A   Clear
2:15 PM 19.4 °F 7.2 °F 5.0 °F 54% 30.40 in 10.0 mi WNW 11.5 mph - N/A   Scattered Clouds
2:35 PM 17.6 °F 7.3 °F 5.0 °F 58% 30.40 in 10.0 mi West 8.1 mph - N/A   Scattered Clouds
2:55 PM 17.6 °F 7.3 °F 5.0 °F 58% 30.39 in 10.0 mi West 8.1 mph 17.3 mph N/A   Scattered Clouds
3:15 PM 19.4 °F 7.2 °F 5.0 °F 54% 30.39 in 10.0 mi WNW 11.5 mph - N/A   Scattered Clouds
3:35 PM 19.4 °F 8.6 °F 5.0 °F 54% 30.39 in 10.0 mi NW 9.2 mph - N/A   Clear
4:15 PM 19.4 °F 7.9 °F 6.8 °F 58% 30.39 in 10.0 mi West 10.4 mph - N/A   Clear
4:35 PM 19.4 °F 9.5 °F 6.8 °F 58% 30.38 in 10.0 mi WNW 8.1 mph - N/A   Clear
4:55 PM 19.4 °F 10.4 °F 6.8 °F 58% 30.38 in 10.0 mi WNW 6.9 mph - N/A   Clear
5:15 PM 19.4 °F 11.5 °F 6.8 °F 58% 30.38 in 10.0 mi WNW 5.8 mph - N/A   Clear
5:35 PM 19.4 °F 12.8 °F 5.0 °F 54% 30.38 in 10.0 mi WNW 4.6 mph - N/A   Clear
6:15 PM 17.6 °F 12.3 °F 6.8 °F 63% 30.38 in 10.0 mi WNW 3.5 mph - N/A   Clear
6:35 PM 15.8 °F 10.2 °F 6.8 °F 68% 30.38 in 10.0 mi West 3.5 mph - N/A   Clear
6:55 PM 14.0 °F 6.5 °F 6.8 °F 73% 30.39 in 10.0 mi West 4.6 mph - N/A   Clear
7:15 PM 14.0 °F 6.5 °F 8.6 °F 79% 30.39 in 10.0 mi West 4.6 mph - N/A   Clear
7:35 PM 14.0 °F 6.5 °F 8.6 °F 79% 30.39 in 10.0 mi West 4.6 mph - N/A   Clear
7:55 PM 14.0 °F 6.5 °F 8.6 °F 79% 30.38 in 10.0 mi West 4.6 mph - N/A   Clear
8:15 PM 14.0 °F - 8.6 °F 79% 30.38 in 10.0 mi Calm Calm - N/A   Clear
8:35 PM 12.2 °F 6.1 °F 8.6 °F 85% 30.38 in 10.0 mi West 3.5 mph - N/A   Clear
8:55 PM 12.2 °F 2.9 °F 8.6 °F 85% 30.38 in 10.0 mi West 5.8 mph - N/A   Clear
9:15 PM 14.0 °F - 8.6 °F 79% 30.38 in 10.0 mi Calm Calm - N/A   Clear
9:35 PM 12.2 °F 6.1 °F 8.6 °F 85% 30.38 in 10.0 mi WSW 3.5 mph - N/A   Clear
9:55 PM 14.0 °F 6.5 °F 8.6 °F 79% 30.38 in 10.0 mi SSW 4.6 mph - N/A   Clear
10:15 PM 14.0 °F 5.1 °F 8.6 °F 79% 30.36 in 10.0 mi South 5.8 mph - N/A   Clear
10:35 PM 14.0 °F 6.5 °F 8.6 °F 79% 30.35 in 10.0 mi South 4.6 mph - N/A   Clear
10:55 PM 10.4 °F - 8.6 °F 92% 30.36 in 10.0 mi Calm Calm - N/A   Clear
11:15 PM 12.2 °F 6.1 °F 8.6 °F 85% 30.36 in 10.0 mi SW 3.5 mph - N/A   Clear
11:35 PM 12.2 °F 4.3 °F 8.6 °F 85% 30.35 in 10.0 mi SSW 4.6 mph - N/A   Clear
11:55 PM 14.0 °F 8.2 °F 8.6 °F 79% 30.34 in 10.0 mi SSW 3.5 mph - N/A   Clear